SCD 2

Last updated on Mon Sep 21 2026 00:02:45 GMT+0000 (Coordinated Universal Time)

1 25504U 98060A 26263.02710416 .00000340 00000+0 43998-4 0 9992 2 25504 24.9943 207.2699 0016891 46.2250 31.3430 14.45554228474063
UTC large
Height (km)
Speed (km/s)
/
Latitude / Longitude
Inclination (degrees)
Orbital Period (minutes)
Azimuth
Elevation
Range (km)
Doppler Factor

Next 0 passes for location: London (51.5072 / 0.1276)

No passes found over London.
SCD 2